Location: Stigler
(35.2540°N, 95.1230°W)
Time: 21:37:01
(UTC-05:00)

Cosmos 1610 Rocket - Pass Details

Date: 26 September 2017
Orbit: 952 x 1003 km, 82.9° (Epoch: 22 October)

Event Time Altitude Azimuth Distance (km) Brightness Sun altitude
Rises 20:14:13 0° 178° (S) 3,698 7.4 -13.7°
Reaches altitude 10° 20:16:44 10° 176° (S) 2,757 6.7 -14.2°
Maximum altitude 20:23:03 72° 93° (E) 1,052 4.5 -15.5°
Drops below altitude 10° 20:29:25 10° 11° (N) 2,781 6.9 -16.8°
Sets 20:31:57 0° 9° (N) 3,732 7.6 -17.3°
